Eveleth, MN

6:44 AM CDT on May 29, 2017 (GMT -0500)
Eveleth-Virginia Municipal

Weather History for KEVM - March, 2013

Change the Weather History Date:

Tuesday, March 12, 2013

  Actual Average Record
Temperature  
Mean Temperature 17 °F -  
Max Temperature 22 °F 31 °F 62 °F (2016)
Min Temperature 12 °F 9 °F -23 °F (2009)
Degree Days  
Heating Degree Days 48    
Moisture  
Dew Point 10 °F    
Average Humidity 70    
Maximum Humidity 93    
Minimum Humidity 52    
Precipitation  
Precipitation 0.00 in - - ()
Sea Level Pressure  
Sea Level Pressure 29.91 in    
Wind  
Wind Speed 7 mph (NNW)    
Max Wind Speed 17 mph    
Max Gust Speed 24 mph    
Visibility 10 miles    
Events Snow    
Averages and records for this station are not official NWS values.
T = Trace of Precipitation, MM = Missing Value Source: NWS Daily Summary

Daily Weather History Graph

Daily Weather History Graph

Search for Another Location

Airport or City:

Trip Planner

Search our weather history database for the weather conditions in past years. The results will help you decide how hot, cold, wet, or windy it might be!

Date:

Astronomy

Mar. 12, 2013 Rise Set
Actual Time 7:28 AM CDT 7:11 PM CDT
Civil Twilight 6:57 AM CDT 7:42 PM CDT
Nautical Twilight 6:22 AM CDT 8:17 PM CDT
Astronomical Twilight 5:46 AM CDT 8:54 PM CDT
Moon 7:28 AM CDT (3/12) 8:36 PM CDT (3/12)
Length of Visible Light 12h 44m
Length of Day
11h 43m
New Moon, 1% of the Moon is Illuminated
Mar 12
New Moon
Mar 19
First Quarter
Mar 27
Full
Apr 2
Last Quarter
Apr 10
New

Hourly Weather History & Observations

Time (CDT) Temp. Windchill Dew Point Humidity Pressure Visibility Wind Dir Wind Speed Gust Speed Precip Events Conditions
12:05 AM 19.4 °F 11.5 °F 15.8 °F 86% 29.75 in 10.0 mi NW 5.8 mph - N/A   Overcast
12:25 AM 19.4 °F 12.8 °F 15.8 °F 86% 29.75 in 10.0 mi NW 4.6 mph - N/A   Overcast
12:45 AM 19.4 °F 11.5 °F 15.8 °F 86% 29.75 in 10.0 mi NW 5.8 mph - N/A   Overcast
1:05 AM 19.4 °F 10.4 °F 15.8 °F 86% 29.75 in 10.0 mi NNW 6.9 mph - N/A   Overcast
1:25 AM 19.4 °F 12.8 °F 15.8 °F 86% 29.75 in 10.0 mi NW 4.6 mph - N/A   Overcast
1:45 AM 19.4 °F 11.5 °F 15.8 °F 86% 29.75 in 10.0 mi NW 5.8 mph - N/A   Overcast
2:05 AM 19.4 °F 10.4 °F 15.8 °F 86% 29.75 in 10.0 mi NW 6.9 mph - N/A   Overcast
2:25 AM 19.4 °F 11.5 °F 15.8 °F 86% 29.75 in 10.0 mi NW 5.8 mph - N/A   Overcast
2:45 AM 17.6 °F 9.3 °F 14.0 °F 86% 29.76 in 10.0 mi WNW 5.8 mph - N/A   Overcast
3:05 AM 19.4 °F 10.4 °F 15.8 °F 86% 29.76 in 10.0 mi WNW 6.9 mph - N/A   Overcast
3:25 AM 17.6 °F 9.3 °F 15.8 °F 93% 29.75 in 10.0 mi NNW 5.8 mph - N/A   Overcast
3:45 AM 17.6 °F 10.7 °F 15.8 °F 93% 29.75 in 10.0 mi NNW 4.6 mph - N/A   Overcast
4:05 AM 17.6 °F 12.3 °F 14.0 °F 86% 29.76 in 10.0 mi NNW 3.5 mph - N/A   Overcast
4:25 AM 17.6 °F - 14.0 °F 86% 29.76 in 10.0 mi Calm Calm - N/A   Overcast
4:45 AM 17.6 °F 12.3 °F 14.0 °F 86% 29.76 in 10.0 mi North 3.5 mph - N/A   Overcast
5:05 AM 17.6 °F - 12.2 °F 79% 29.76 in 10.0 mi Calm Calm - N/A   Overcast
5:25 AM 17.6 °F 10.7 °F 12.2 °F 79% 29.77 in 10.0 mi NNW 4.6 mph - N/A   Overcast
5:45 AM 17.6 °F 9.3 °F 12.2 °F 79% 29.77 in 10.0 mi NNW 5.8 mph 16.1 mph N/A   Overcast
6:05 AM 17.6 °F 6.4 °F 12.2 °F 79% 29.78 in 10.0 mi North 9.2 mph 17.3 mph N/A   Overcast
6:25 AM 17.6 °F 8.2 °F 10.4 °F 73% 29.79 in 10.0 mi North 6.9 mph - N/A   Overcast
7:05 AM 14.0 °F 2.9 °F 6.8 °F 73% 29.80 in 10.0 mi North 8.1 mph 17.3 mph N/A   Overcast
7:25 AM 12.2 °F -0.2 °F 6.8 °F 79% 29.81 in 10.0 mi NNW 9.2 mph - N/A   Overcast
7:45 AM 12.2 °F 1.7 °F 6.8 °F 79% 29.82 in 10.0 mi NW 6.9 mph - N/A   Scattered Clouds
8:05 AM 12.2 °F 4.3 °F 6.8 °F 79% 29.83 in 10.0 mi NNW 4.6 mph - N/A   Clear
8:46 AM - - - N/A% 29.83 in 10.0 mi NNW 9.2 mph - N/A   Clear
9:04 AM - - - N/A% 29.84 in 10.0 mi North 6.9 mph 16.1 mph N/A   Scattered Clouds
9:15 AM 12.2 °F 0.7 °F 5.7 °F 75% 29.84 in 10.0 mi NNW 8.1 mph 17.3 mph N/A   Scattered Clouds
9:50 AM 12.6 °F 0.2 °F 5.0 °F 72% 29.85 in 10.0 mi NNW 9.2 mph 16.1 mph N/A   Scattered Clouds
10:09 AM 12.2 °F -1.8 °F 4.8 °F 72% 29.85 in 10.0 mi NNW 11.5 mph 20.7 mph N/A   Clear
10:29 AM 13.6 °F -0.7 °F 5.9 °F 71% 29.86 in 10.0 mi NW 12.7 mph 17.3 mph N/A   Scattered Clouds
10:50 AM 14.9 °F 2.3 °F 7.2 °F 71% 29.86 in 10.0 mi NW 10.4 mph 16.1 mph N/A   Mostly Cloudy
11:09 AM 14.9 °F 2.3 °F 6.8 °F 70% 29.87 in 10.0 mi NNW 10.4 mph - N/A   Scattered Clouds
11:29 AM 17.4 °F 4.1 °F 8.6 °F 68% 29.88 in 10.0 mi NNW 12.7 mph 19.6 mph N/A   Scattered Clouds
11:50 AM 17.4 °F 4.7 °F 8.6 °F 68% 29.88 in 10.0 mi NNW 11.5 mph 20.7 mph N/A   Clear
12:09 PM 17.4 °F 8.0 °F 8.4 °F 68% 29.89 in 10.0 mi North 6.9 mph 18.4 mph N/A   Scattered Clouds
12:29 PM 17.4 °F 6.2 °F 8.2 °F 67% 29.90 in 10.0 mi North 9.2 mph 16.1 mph N/A   Scattered Clouds
12:50 PM 19.9 °F 7.9 °F 9.7 °F 64% 29.91 in 10.0 mi NNW 11.5 mph 18.4 mph N/A   Mostly Cloudy
1:09 PM 19.9 °F 9.3 °F 10.2 °F 66% 29.91 in 10.0 mi North 9.2 mph - N/A   Overcast
1:29 PM 19.4 °F 8.6 °F 10.0 °F 67% 29.92 in 7.0 mi NNW 9.2 mph 18.4 mph N/A   Overcast
1:49 PM 19.6 °F 8.9 °F 10.8 °F 69% 29.93 in 7.0 mi NNW 9.2 mph 17.3 mph N/A   Overcast
2:09 PM 19.9 °F 10.1 °F 10.0 °F 65% 29.93 in 10.0 mi North 8.1 mph - N/A   Overcast
2:29 PM 19.9 °F 9.3 °F 10.2 °F 66% 29.93 in 10.0 mi North 9.2 mph 17.3 mph N/A   Overcast
2:49 PM 19.9 °F 6.2 °F 10.2 °F 66% 29.94 in 10.0 mi NNW 15.0 mph 20.7 mph N/A   Overcast
3:10 PM 19.9 °F 5.7 °F 10.6 °F 67% 29.95 in 5.0 mi NNW 16.1 mph 20.7 mph N/A   Haze
3:29 PM 19.9 °F 7.9 °F 10.6 °F 67% 29.95 in 7.0 mi North 11.5 mph 19.6 mph N/A   Overcast
3:49 PM 20.7 °F 10.2 °F 11.1 °F 67% 29.96 in 7.0 mi North 9.2 mph 24.2 mph N/A   Overcast
4:10 PM 20.7 °F 8.8 °F 11.1 °F 67% 29.97 in 7.0 mi NNW 11.5 mph 20.7 mph N/A   Overcast
4:29 PM 22.5 °F 11.7 °F 12.9 °F 67% 29.98 in 7.0 mi NNW 10.4 mph 18.4 mph N/A   Overcast
4:49 PM 21.7 °F 10.8 °F 12.6 °F 68% 29.98 in 7.0 mi North 10.4 mph 18.4 mph N/A   Overcast
5:10 PM 21.0 °F 6.6 °F 12.6 °F 70% 29.99 in 7.0 mi North 17.3 mph 23.0 mph N/A Snow Light Snow
5:29 PM 20.3 °F 9.0 °F 11.5 °F 69% 30.00 in 10.0 mi North 10.4 mph 24.2 mph N/A   Overcast
5:49 PM 20.3 °F 9.8 °F 10.6 °F 66% 30.02 in 10.0 mi NNW 9.2 mph 18.4 mph N/A   Mostly Cloudy
6:10 PM 19.9 °F 8.6 °F 9.0 °F 62% 30.02 in 10.0 mi North 10.4 mph 18.4 mph N/A   Overcast
6:30 PM 19.9 °F 10.1 °F 8.6 °F 61% 30.03 in 10.0 mi North 8.1 mph - N/A   Mostly Cloudy
6:49 PM 19.9 °F 9.3 °F 7.9 °F 60% 30.04 in 10.0 mi NNW 9.2 mph 16.1 mph N/A   Overcast
7:10 PM 19.9 °F 9.3 °F 6.4 °F 56% 30.05 in 10.0 mi NNW 9.2 mph - N/A   Mostly Cloudy
7:30 PM 19.9 °F 11.1 °F 5.7 °F 54% 30.05 in 10.0 mi NNW 6.9 mph 17.3 mph N/A   Overcast
7:49 PM 19.9 °F 12.1 °F 5.0 °F 52% 30.06 in 10.0 mi North 5.8 mph - N/A   Overcast
8:10 PM 19.9 °F 12.1 °F 4.8 °F 52% 30.06 in 10.0 mi NNW 5.8 mph - N/A   Mostly Cloudy
8:30 PM 19.9 °F 12.1 °F 5.2 °F 53% 30.08 in 10.0 mi NNW 5.8 mph - N/A   Scattered Clouds
8:49 PM 19.9 °F 10.1 °F 5.4 °F 53% 30.09 in 10.0 mi NNW 8.1 mph - N/A   Mostly Cloudy
9:09 PM 19.9 °F 11.1 °F 5.0 °F 52% 30.09 in 10.0 mi NNW 6.9 mph - N/A   Scattered Clouds
9:29 PM 18.5 °F 8.4 °F 4.5 °F 54% 30.10 in 10.0 mi NNW 8.1 mph - N/A   Clear
9:50 PM 18.0 °F 11.1 °F 4.1 °F 55% 30.10 in 10.0 mi NNW 4.6 mph - N/A   Scattered Clouds
10:09 PM 17.4 °F 10.4 °F 3.7 °F 55% 30.10 in 10.0 mi NW 4.6 mph - N/A   Scattered Clouds
10:29 PM 17.4 °F 10.4 °F 4.1 °F 56% 30.11 in 10.0 mi NW 4.6 mph - N/A   Scattered Clouds
10:49 PM 17.4 °F 12.1 °F 4.6 °F 57% 30.11 in 10.0 mi NW 3.5 mph - N/A   Clear
11:10 PM 14.9 °F 7.5 °F 3.2 °F 60% 30.12 in 10.0 mi WNW 4.6 mph - N/A   Clear
11:29 PM 14.9 °F 9.2 °F 3.2 °F 60% 30.12 in 10.0 mi NW 3.5 mph - N/A   Clear
11:49 PM 13.8 °F 6.2 °F 2.8 °F 62% 30.12 in 10.0 mi WNW 4.6 mph - N/A   Clear